Preview of NWS' New Version of Forecast
This preview is not operational and should not be used for support decisions.

Regional Weather Roundup (RWR)

Issued by National Weather Service (NWS)

                            
000
ASUS46 KPQR 152110
RWROR 

OREGON REGIONAL WEATHER ROUNDUP
NATIONAL WEATHER SERVICE PORTLAND OR
200 PM PDT MON JUL 15 2019

NOTE: "FAIR" INDICATES FEW OR NO CLOUDS BELOW 12,000 FEET WITH
NO SIGNIFICANT WEATHER AND/OR OBSTRUCTIONS TO VISIBILITY.

ORZ001>013-152200-
NORTHWEST OREGON

  
CITY           SKY/WX    TMP DP  RH WIND       PRES   REMARKS
ASTORIA        CLOUDY    65  60  84 W6        30.09S                  
TILLAMOOK      PTSUNNY   70  61  73 S7        30.10F                  
NEWPORT        CLOUDY    64  61  88 S10       30.14S                  
PORTLAND       PTSUNNY   70  56  61 S6        30.09F                  
VANCOUVER WA   CLOUDY    70  57  63 VRB3      30.09S                  
SCAPPOOSE      CLOUDY    68  59  73 S6        30.08S                  
HILLSBORO      CLOUDY    69  58  67 W5        30.09F                  
AURORA         PTSUNNY   72  58  61 S6        30.10F                  
MCMINNVILLE    CLOUDY    70  60  70 S8        30.09F                  
SALEM          PTSUNNY   69  59  70 S10       30.09F                  
CORVALLIS      CLOUDY    71  61  70 NE3       30.11S                  
EUGENE         PTSUNNY   74  59  59 W7        30.11S                  
$$

ORZ021-028-152200-
SOUTHWEST OREGON

  
CITY           SKY/WX    TMP DP  RH WIND       PRES   REMARKS
NORTH BEND     PTSUNNY   70  63  78 W15       30.13S                  
BROOKINGS      SUNNY     67  59  75 W9        30.12F                  
ROSEBURG       CLOUDY    78  53  41 CALM      30.07F                  
GRANTS PASS    FAIR      81  50  34 VRB3      30.09F                  
MEDFORD        MOSUNNY   81  48  31 VRB5      30.05F                  
$$

ORZ014>016-041-152200-
COLUMBIA GORGE

  
CITY           SKY/WX    TMP DP  RH WIND       PRES   REMARKS
TROUTDALE      CLOUDY    72  57  59 VRB5      30.09S                  
HOOD RIVER     MOSUNNY   73  55  53 NW14      30.05F                  
THE DALLES     MOSUNNY   77  57  50 NW14      30.02F                  
$$

ORZ029>031-041-044-049-050-061>064-502-503-505>511-152200-
EASTERN OREGON

  
CITY           SKY/WX    TMP DP  RH WIND       PRES   REMARKS
MADRAS         CLOUDY    73  50  43 NW10      30.10F                  
REDMOND        PTSUNNY   76  49  38 W10       30.09F                  
BEND           PTSUNNY   73  48  40 VRB5G12   30.10S                  
PRINEVILLE     CLOUDY    70  48  46 NW8       30.10S                  
KLAMATH FALLS  PTSUNNY   76  48  37 W14       30.11F                  
LAKEVIEW       PTSUNNY   79  44  28 S13G22    30.13S                  
HERMISTON      PTSUNNY   78  55  44 NW10      30.01F                  
PENDLETON      MOSUNNY   78  51  38 NW15      30.03F                  
JOHN DAY       PTSUNNY   75  46  35 W5        30.07F                  
MEACHAM        CLOUDY    67  48  50 VRB3      30.12F                  
LA GRANDE      MOSUNNY   78  48  34 N9        30.04F                  
BAKER CITY     MOSUNNY   79  48  33 NW9       30.06F                  
BURNS          MOSUNNY   81  48  31 SW9       30.07F                  
ROME             N/A     89  35  14 W9G24     30.02F                  
ONTARIO        MOSUNNY   92  47  21 VRB3      29.94F                  
$$